www.pogodaiklimat.ru

Погода и климат >> Архив погоды >> Россия >> Красноярский край >> Большая Мурта


ПОГОДА в Большой Мурте

  • Прогноз погоды в Большой Мурте
  • Монитор погоды в Большой Мурте

АРХИВ ПОГОДЫ в Большой Мурте

Время (UTC), дата Ветер
(напр.,м/с)
 
Видим.   Явления Облачность Т
(С)
Тd
(С)
f
(%)
Тe
(С)
Тes
(С)
Комфортность P
(гПа)
Po
(гПа)
Тmin
(С)
Tmax
(С)
R
(мм)
R24
(мм)
S
(см)
09 15.08 СВ 4 20 км 8/8 1000 м
[Cu med, cong]
+22.7 +9.7 44 +24 +25 комфорт 1011.6 990.9
12 15.08 В 2 20 км 4/4 1000 м
[Cu med, cong]
+22.5 +7.5 38 +23 +24 комфорт 1011.8 991.0 +23.6
15 15.08 ЮВ 1 н/о н/о +16.1 +11.5 74 +17 +17 1012.3 991.1
18 15.08 Ю 1 н/о н/о +12.0 +10.2 89 +12 +12 1013.0 991.5
21 15.08 штиль 0 н/о н/о +10.3 +9.0 92 +10 +10 1012.1 990.5
00 16.08 СВ 2 20 км 4/0
[Cs]
+14.3 +11.1 81 +14 +15 1011.4 990.1 +10.0
03 16.08 СВ 3 н/о н/о +19.6 +12.1 62 +21 +21 комфорт 1010.8 989.9
06 16.08 В 4
{11}
20 км 3/3 1000 м
[Cu med, cong Ci fib]
+23.6 +9.3 40 +24 +30 комфорт 1009.5 988.9
09 16.08 В 4
{10}
20 км 3/3 1000 м
[Cu hum Ci fib]
+25.2 +7.1 31 +25 +28 комфорт 1008.2 987.7
12 16.08 В 2 20 км 3/0
[Cs]
+23.7 +8.8 39 +24 +25 комфорт 1008.7 988.1 +25.7
15 16.08 В 1 н/о н/о +19.0 +11.3 61 +21 +21 комфорт 1009.9 989.0
18 16.08 В 2 н/о н/о +17.3 +12.0 71 +18 +18 1010.5 989.4
21 16.08 штиль 0 н/о н/о +12.7 +11.2 91 +12 +12 1011.1 989.6
00 17.08 штиль 0 4000 м дымка ясно +13.6 +12.0 90 +13 +14 1012.0 990.6 +11.8
03 17.08 С 1 н/о н/о +19.7 +13.1 66 +22 +22 комфорт 1012.2 991.3
06 17.08 СВ 2 4000 м дымка 4/4 1000 м
[Cu hum]
+24.1 +12.1 47 +26 +33 жарко 1011.8 991.2
09 17.08 С 1 4000 м дымка 8/8 600 м
[Cb cap]
+24.7 +10.5 41 +26 +27 жарко 1011.8 991.3
12 17.08 С 1 4000 м дымка 8/8 600 м
[Cb cap Ac trans]
+21.7 +11.5 52 +24 +24 комфорт 1012.7 991.9 +25.3
15 17.08 штиль 0 н/о н/о +17.5 +11.8 69 +18 +18 1013.5 992.4
18 17.08 штиль 0 н/о н/о +15.4 +12.5 83 +15 +15 1013.8 992.5
21 17.08 СЗ 2 н/о н/о +12.9 +11.3 90 +12 +12 1013.7 992.2
00 18.08 СЗ 2 4000 м дымка 6/3 600 м
[Cb cap Cs]
+12.0 +10.5 91 +11 +11 1014.2 992.7 +11.7
03 18.08 СВ 1 н/о н/о +18.8 +12.6 67 +21 +21 комфорт 1013.9 992.9
06 18.08 СВ 1 4000 м мгла 8/8 600 м
[Cb cap]
+19.7 +12.1 62 +22 +25 комфорт 1013.0 992.1
09 18.08 СВ 2 4000 м мгла {гроза} 3/3 600 м
[Cb cap]
+21.6 +9.0 44 +23 +27 комфорт 1011.9 991.1
12 18.08 СВ 1 4000 м мгла {гроза} 9/9 600 м
[Cb cap]
+20.1 +10.3 53 +23 +23 комфорт 1012.6 991.7 +22.2 0.5
15 18.08 штиль 0 н/о н/о +14.3 +11.9 85 +14 +14 1014.0 992.6
18 18.08 З 1 н/о н/о +11.4 +10.6 95 +11 +11 1014.5 992.9
21 18.08 З 1 н/о н/о +9.8 +9.1 95 +9 +9 1014.7 993.0
00 19.08 штиль 0 4000 м дымка ясно +9.4 +8.4 93 +9 +10 1015.9 994.1 +8.1
03 19.08 СВ 1 н/о н/о +17.3 +12.2 72 +18 +18 1015.8 994.6
06 19.08 З 1 4000 м мгла 6/6 600 м
[Cb cap]
+22.7 +11.6 49 +25 +30 комфорт 1014.7 993.9
09 19.08 штиль 0 4000 м мгла 9/9 600 м
[Cu med, cong]
+24.0 +9.0 38 +25 +26 комфорт 1014.4 993.7
12 19.08 Ю 1 4000 м мгла 9/6 600 м
[Cb cap Ac trans Ci]
+20.8 +11.5 55 +24 +24 комфорт 1014.7 993.8 +24.2
15 19.08 штиль 0 н/о н/о +14.1 +12.1 88 +14 +14 1016.1 994.7
18 19.08 штиль 0 н/о н/о +11.7 +10.8 94 +11 +11 1016.2 994.6
21 19.08 штиль 0 н/о н/о +10.4 +9.8 96 +10 +10 1016.1 994.4
00 20.08 штиль 0 500 м туман 10/0
[Cs]
+11.5 +10.9 96 +11 +12 1016.0 994.4 +10.1
03 20.08 ЮВ 1 н/о н/о +18.7 +13.1 70 +21 +21 комфорт 1015.1 994.0
06 20.08 ЮВ 4 4000 м мгла {туман} 10/5 1000 м
[Cu hum Ci fib]
+23.5 +9.3 40 +24 +27 комфорт 1013.7 993.0
09 20.08 В 2 4000 м мгла 10/8 600 м
[Cb cap Ci sp]
+23.9 +9.1 39 +25 +26 комфорт 1012.4 991.8
12 20.08 ЮВ 1 4000 м мгла 9/8 600 м
[Cb cap Ac trans]
+22.5 +10.2 46 +24 +24 комфорт 1012.2 991.5 +24.8
15 20.08 ЮВ 1 н/о н/о +18.3 +12.8 70 +20 +20 1012.2 991.2
18 20.08 Ю 1 н/о н/о +17.5 +12.9 74 +19 +19 1012.0 990.9
21 20.08 В 1 н/о н/о +15.3 +14.4 94 +16 +16 1012.4 991.2
00 21.08 ЮЗ 1 10 км дождь 10/0 600 м
[As op]
+13.7 +12.8 94 +14 +14 1013.8 992.4 +13.7 8
03 21.08 З 1 н/о н/о +14.7 +13.4 92 +15 +15 1014.7 993.3
06 21.08 З 2 20 км {дождь} 8/6 600 м
[Cb cap Cs]
+18.6 +11.7 64 +20 +24 1014.3 993.3
09 21.08 СЗ 2 20 км 6/6 1000 м
[Cu med, cong]
+20.9 +8.2 44 +23 +25 комфорт 1014.0 993.1
12 21.08 СВ 1 20 км 3/3 1000 м
[Cu med, cong]
+20.1 +9.4 50 +22 +23 комфорт 1013.7 992.8 +21.1 4
15 21.08 штиль 0 н/о н/о +12.2 +11.2 94 +12 +12 1014.5 993.0
18 21.08 штиль 0 н/о н/о +11.0 +10.2 95 +10 +10 1014.5 992.9
21 21.08 штиль 0 н/о н/о +10.5 +9.8 95 +10 +10 1014.0 992.3
00 22.08 В 1 500 м туман 10/0
[Cs]
+10.2 +9.6 96 +10 +10 1014.0 992.3 +9.3
03 22.08 В 1 н/о н/о +13.3 +12.7 96 +13 +13 1013.4 992.0
06 22.08 В 1 20 км {туман} 9/4 1000 м
[Cu med, cong Cs]
+21.6 +9.0 44 +23 +29 комфорт 1011.4 990.6

 

Местоположение метеостанции Большая Мурта (Красноярский край, Россия): широта 56.90 долгота 93.13 высота над уровнем моря 180 м.

В архиве по умолчанию представлена погода в Большой Мурте за последнюю неделю. Архивные данные за месяц целиком и за предыдущие месяцы, начиная с января 2011 года, Вы можете получить, выбрав интересующий диапазон дат из раскрывающегося списка и нажав кнопку "Ввод!".


*Определитесь, кто Вы:
робот инопланетянин человек

Внимание! Время в таблицах - всемирное. Для получения местного времени необходимо прибавить поправку, которая равна 7 ч.

Смотрите также архив погоды в соседних городах и на ближайших метеорологических станциях:

Погода в Сухобузимском (Красноярский край, Россия) (45 км)
Погода в Погорельском Бору (Красноярский край, Россия) (60 км)
Погода в Железногорске (Красноярский край, Россия) (76 км)
Погода в Казачинском (Красноярский край, Россия) (87 км)
Погода в Емельяново (Красноярский край, Россия) (90 км)
Погода в Тасеево (Красноярский край, Россия) (92 км)
Погода в Минино (Красноярский край, Россия) (96 км)
Погода в Пировском (Красноярский край, Россия) (96 км)
Погода в Красноярске (Красноярский край, Россия) (100 км)
Погода в Каче (Красноярский край, Россия) (104 км)

Пояснения к столбцам:

Ветер - указаны скорость ветра в м/с - средняя за 10 мин, порывы в срок и между сроками (в фигурных скобках) и направление, откуда дует ветер: С - северный, СВ - северо-восточный, В - восточный, ЮВ - юго-восточный, Ю - южный, ЮЗ - юго-западный, З - западный, СЗ - северо-западный.
Видимость - горизонтальная дальность видимости в метрах или километрах. При видимости от 1 до 10 км при отсутствии осадков обычно наблюдается дымка, при ухудшении видимости до 1 км и менее - туман. В сухую погоду видимость может ухудшаться дымом, пылью или мглою.
Явления - указаны атмосферные явления, наблюдавшиеся в срок или в последний час перед сроком; фигурными скобками обозначены явления, наблюдавшиеся между сроками (за 1-3 часа до срока); квадратными скобками обозначены град или гололедные отложения с указанием их диаметра в мм.
Облачность - указаны через наклонную черту общая и нижняя облачность в баллах и высота нижней границы облаков в метрах; квадратными скобками обозначены формы облаков: Ci - перистые, Cs - перисто-слоистые, Cc - перисто-кучевые, Ac - высококучевые, As - высокослоистые, Sc - слоисто-кучевые, Ns - слоисто-дождевые, Cu - кучевые, Cb - кучево-дождевые. Подробнее классификацию облаков см. в Атласе облаков (PDF).
T - Температура воздуха - температура, измеренная на высоте 2 м над землей.
Td - Температура точки росы - температура, при понижении до которой содержащийся в воздухе водяной пар достигнет насыщения.
f - Относительная влажность воздуха - влажноcть воздуха, измеренная на высоте 2 м над землей.
Te - Эффективная температура - температура, которую ощущает одетый по сезону человек в тени. Характеристика душности погоды. При расчете учитывается влияние влажности воздуха и скорости ветра на теплоощущения человека.
Tes - Эффективная температура на солнце - температура, которую ощущает человек, с поправкой на солнечный нагрев. Характеристика знойности погоды. Зависит от высоты солнца над горизонтом, облачности и скорости ветра. Ночью, в пасмурную погоду, а также при ветре 12 м/с и более поправка равна нулю.
P - Атмосферное давление - приведенное к уровню моря атмосферное давление.
Po - Атмосферное давление - измеренное на уровне метеостанции атмосферное давление.
Tmin - Минимальная температура - минимум температуры воздуха на высоте 2 м над землей.
Tmax - Максимальная температура - максимум температуры воздуха на высоте 2 м над землей.
R - Количество осадков - Количество выпавших осадков за период времени, мм. При наведении курсора мыши на число - период времени, за который выпало указанное количество осадков.
R24 - Количество осадков - Количество выпавших осадков за 24 часа, мм.
S - Снежный покров - Высота снежного покрова, см. При наведении курсора мыши на число - состояние снежного покрова и степень покрытия местности в баллах.